SES-17

Last updated on Wed Oct 29 2025 00:02:50 GMT+0000 (Coordinated Universal Time)

1 49332U 21095A 25301.44402333 -.00000262 00000+0 00000+0 0 9991 2 49332 0.0296 24.3981 0000951 181.3920 284.0203 1.00269642 15539
UTC large
Height (km)
Speed (km/s)
/
Latitude / Longitude
Inclination (degrees)
Orbital Period (minutes)
Azimuth
Elevation
Range (km)
Doppler Factor

Next 0 passes for location: London (51.5072 / 0.1276)

Sorry there are no passes over London.